Location: Newark
(44.3248°N, 23.7839°E)
Time: 03:51:04
(UTC+00:00)

QB50P2 - Visible Passes

Search period start: 16 April 2024 00:00
Search period end: 26 April 2024 00:00
Orbit: 568 x 582 km, 98.0° (Epoch: 15 April)

Date Brightness Start Highest point End Pass type
(mag) Time Alt. Az. Time Alt. Az. Time Alt. Az.
16 Apr ? 00:25:42 10° NNE 00:28:52 31° E 00:28:52 31° E visible
16 Apr ? 02:01:11 10° NNW 02:04:27 23° WNW 02:05:07 22° W visible
17 Apr ? 00:29:09 10° NNE 00:32:32 34° E 00:32:32 34° E visible
17 Apr ? 02:04:47 10° NNW 02:07:56 22° WNW 02:08:47 20° W visible
18 Apr ? 00:32:35 10° NNE 00:36:11 37° E 00:36:11 37° E visible
18 Apr ? 02:08:22 10° NNW 02:11:24 20° WNW 02:12:25 18° W visible
19 Apr ? 00:36:01 10° NNE 00:39:48 41° E 00:39:48 41° E visible
19 Apr ? 02:11:57 10° NNW 02:14:50 19° WNW 02:16:03 17° W visible
20 Apr ? 00:39:26 10° NNE 00:43:25 45° E 00:43:25 45° E visible
20 Apr ? 02:15:31 10° NNW 02:18:15 17° WNW 02:19:39 15° W visible
21 Apr ? 00:42:50 10° NNE 00:46:51 49° E 00:46:59 49° ESE visible
21 Apr ? 02:19:05 10° NNW 02:21:39 16° WNW 02:23:13 14° W visible
22 Apr ? 00:46:13 10° NNE 00:50:16 53° E 00:50:33 52° ESE visible
22 Apr ? 02:22:39 10° NNW 02:25:02 15° WNW 02:26:47 12° W visible
23 Apr ? 00:49:35 10° NNE 00:53:41 58° E 00:54:06 55° SE visible
23 Apr ? 02:26:13 10° NNW 02:28:24 14° WNW 02:30:19 11° W visible
24 Apr ? 00:52:57 10° NNE 00:57:03 64° E 00:57:37 56° SE visible
24 Apr ? 02:29:47 10° NNW 02:31:45 13° WNW 02:33:41 10° W visible
25 Apr ? 00:56:18 10° NNE 01:00:26 69° ESE 01:01:06 57° SSE visible
25 Apr ? 02:33:22 10° NW 02:35:04 12° WNW 02:36:43 10° W visible
